"2009-06-18 00:00:00",985265,3.325,96.5,2.596,0.22,19.79,108.8027,21.82,22.86,37.43,0,111,13.18,22.65,58.5
"2009-06-18 00:00:30",985266,3.401,99.6,4.496,0.147,19.78,108.8027,21.82,22.86,37.48,0,111,13.18,22.65,61.6
"2009-06-18 00:01:00",985267,3.351,101.1,3.081,0.127,19.77,108.801,21.82,22.84,38.2,0,111,13.18,22.64,63.1
"2009-06-18 00:01:30",985268,3.05,98.4,2.705,0.1,19.77,108.7954,21.8,22.84,38.43,0,111,13.18,22.63,60.4
"2009-06-18 00:02:00",985269,3.049,95.4,1.871,0.112,19.76,108.787,21.78,22.84,38.98,0,111,13.18,22.61,57.4
"2009-06-18 00:02:30",985270,3.322,101,2.829,0.096,19.74,108.7791,21.76,22.84,38.37,0,111,13.18,22.59,63.0
"2009-06-18 00:03:00",985271,3.428,99.7,2.264,0.265,19.73,108.7707,21.74,22.84,37.68,0,111,13.18,22.57,61.7
"2009-06-18 00:03:30",985272,3.434,99.9,1.953,0.206,19.73,108.769,21.73,22.82,37.92,0,111,13.19,22.56,61.9
"2009-06-18 00:04:00",985273,3.674,94.7,2.244,0.198,19.69,108.769,21.73,22.82,38.31,0,111,13.19,22.56,56.7
"2009-06-18 00:04:30",985274,4.328,89.1,3.155,0.333,19.68,108.769,21.73,22.8,37.97,0,111,13.19,22.56,51.1
"2009-06-18 00:05:00",985275,4.402,90.4,1.942,0.175,19.67,108.769,21.73,22.81,37.67,0,111,13.19,22.56,52.4
"2009-06-18 00:05:30",985276,4.183,93.9,2.746,0.185,19.71,108.769,21.73,22.8,37.47,0,111,13.19,22.56,55.9
"2009-06-18 00:06:00",985277,4.016,100.4,5.155,0.205,19.75,108.769,21.73,22.78,37.2,0,111,13.19,22.56,62.4
"2009-06-18 00:06:30",985278,4.135,98.7,2.769,0.115,19.76,108.769,21.73,22.77,37.07,0,111,13.19,22.56,60.7
"2009-06-18 00:07:00",985279,3.961,100.7,3.112,0.142,19.75,108.7687,21.73,22.79,37.23,0,111,13.19,22.56,62.7
"2009-06-18 00:07:30",985280,3.781,100.1,1.032,0.108,19.73,108.7676,21.73,22.77,36.82,0,111,13.19,22.56,62.1
"2009-06-18 00:08:00",985281,3.636,97.9,3.276,0.132,19.76,108.7605,21.71,22.76,36.86,0,111,13.19,22.54,59.9
"2009-06-18 00:08:30",985282,3.78,96.4,2.724,0.154,19.69,108.7552,21.7,22.77,37.24,0,111,13.19,22.53,58.4
"2009-06-18 00:09:00",985283,3.768,102.5,4.49,0.121,19.69,108.7499,21.68,22.75,37.7,0,111,13.19,22.51,64.5
"2009-06-18 00:09:30",985284,4.045,110.3,3.11,0.158,19.61,108.7454,21.67,22.75,39.29,0,111,13.19,22.50,72.3
"2009-06-18 00:10:00",985285,3.732,109.2,2.636,0.208,19.65,108.7414,21.66,22.74,40.22,0,111,13.19,22.49,71.2
"2009-06-18 00:10:30",985286,3.64,114.1,3.965,0.203,19.64,108.7375,21.65,22.76,39.88,0,111,13.19,22.48,76.1
"2009-06-18 00:11:00",985287,3.671,108.9,5.524,0.366,19.63,108.7355,21.65,22.74,39.85,0,111,13.19,22.47,70.9
"2009-06-18 00:11:30",985288,4.004,110.1,2.884,0.136,19.64,108.7352,21.65,22.73,39.09,0,111,13.19,22.47,72.1
"2009-06-18 00:12:00",985289,3.589,112.8,2.54,0.124,19.6,108.7352,21.65,22.72,39.27,0,111,13.19,22.47,74.8
"2009-06-18 00:12:30",985290,3.973,111.7,3.791,0.156,19.58,108.7355,21.65,22.73,40.1,0,111,13.19,22.47,73.7
"2009-06-18 00:13:00",985291,4.382,110.2,2.478,0.155,19.52,108.7352,21.65,22.73,42.2,0,111,13.19,22.47,72.2
"2009-06-18 00:13:30",985292,3.873,105,4.352,0.226,19.54,108.7355,21.65,22.73,42.84,0,111,13.19,22.47,67.0
"2009-06-18 00:14:00",985293,3.858,108.6,3.29,0.212,19.54,108.735,21.65,22.71,42.63,0,111,13.19,22.47,70.6
"2009-06-18 00:14:30",985294,3.799,106.1,2.906,0.238,19.5,108.7274,21.63,22.7,42.86,0,111,13.19,22.45,68.1
"2009-06-18 00:15:00",985295,4.136,106.9,3.029,0.101,19.48,108.717,21.6,22.71,43.34,0,111,13.19,22.43,68.9
"2009-06-18 00:15:30",985296,4.044,108.6,1.523,0.107,19.52,108.7073,21.57,22.69,44.41,0,111,13.19,22.40,70.6
"2009-06-18 00:16:00",985297,3.94,113.8,3.26,0.129,19.51,108.703,21.56,22.7,44.07,0,111,13.19,22.39,75.8
"2009-06-18 00:16:30",985298,4.114,118.7,1.815,0.097,19.55,108.7027,21.56,22.69,43.57,0,111,13.19,22.39,80.7
"2009-06-18 00:17:00",985299,4.028,122.3,1.003,0.099,19.58,108.704,21.57,22.67,43.51,0,111,13.19,22.39,84.3
"2009-06-18 00:17:30",985300,4.116,121.7,1.488,0.107,19.59,108.7033,21.56,22.66,43.48,0,111,13.19,22.39,83.7
"2009-06-18 00:18:00",985301,4.002,123.1,1.31,0.089,19.56,108.7023,21.56,22.65,44.34,0,111,13.19,22.39,85.1
"2009-06-18 00:18:30",985302,3.914,124.5,1.183,0.089,19.5,108.687,21.52,22.63,45.07,0,111,13.19,22.35,86.5
"2009-06-18 00:19:00",985303,4.164,125.9,1.372,0.096,19.61,108.6738,21.49,22.63,44.52,0,111,13.19,22.32,87.9
"2009-06-18 00:19:30",985304,4.105,125.9,1.567,0.112,19.61,108.6718,21.48,22.62,43.66,0,111,13.19,22.31,87.9
"2009-06-18 00:20:00",985305,4.323,119.1,0.897,0.118,19.54,108.6702,21.48,22.6,43.93,0,111,13.19,22.31,81.1
"2009-06-18 00:20:30",985306,4.297,120.9,1.196,0.146,19.49,108.6715,21.48,22.58,44.92,0,111,13.19,22.31,82.9
"2009-06-18 00:21:00",985307,4.373,119.9,1.852,0.058,19.52,108.6631,21.46,22.57,44.48,0,111,13.19,22.29,81.9
"2009-06-18 00:21:30",985308,4.418,120.1,1.198,0.065,19.53,108.6469,21.42,22.56,44.4,0,111,13.19,22.25,82.1
"2009-06-18 00:22:00",985309,4.591,122,1.331,0.101,19.66,108.6408,21.4,22.53,42.19,0,111,13.19,22.23,84.0
"2009-06-18 00:22:30",985310,4.646,123.4,1.784,0.184,19.74,108.6402,21.4,22.52,41.06,0,111,13.19,22.23,85.4
"2009-06-18 00:23:00",985311,4.667,123.3,2.937,0.196,19.69,108.6438,21.41,22.5,40.63,0,111,13.19,22.24,85.3
"2009-06-18 00:23:30",985312,4.645,120.7,2.03,0.126,19.64,108.6454,21.42,22.48,40.7,0,111,13.2,22.24,82.7
"2009-06-18 00:24:00",985313,4.848,120.2,1.242,0.139,19.59,108.6451,21.41,22.47,40.97,0,111,13.2,22.24,82.2
"2009-06-18 00:24:30",985314,4.815,119.4,2.813,0.213,19.48,108.6375,21.4,22.46,40.97,0,111,13.2,22.22,81.4
"2009-06-18 00:25:00",985315,4.819,119.1,1.49,0.119,19.41,108.6285,21.37,22.46,43.28,0,111,13.2,22.20,81.1
"2009-06-18 00:25:30",985316,4.71,116.6,1.605,0.119,19.61,108.6256,21.36,22.44,41.52,0,111,13.2,22.19,78.6
"2009-06-18 00:26:00",985317,4.591,113.7,2.226,0.103,19.69,108.6236,21.36,22.42,40.07,0,111,13.2,22.19,75.7
"2009-06-18 00:26:30",985318,4.341,111.3,1.438,0.066,19.62,108.624,21.36,22.43,40.45,0,110.9,13.2,22.19,73.3
"2009-06-18 00:27:00",985319,4.366,110.4,1.442,0.105,19.68,108.6273,21.37,22.41,39.48,0,111,13.2,22.20,72.4
"2009-06-18 00:27:30",985320,4.238,111.1,2.303,0.155,19.73,108.625,21.36,22.41,38.76,0,111,13.2,22.19,73.1
"2009-06-18 00:28:00",985321,4.197,105.6,1.188,0.139,19.73,108.6263,21.37,22.4,38.55,0,111,13.2,22.19,67.6
"2009-06-18 00:28:30",985322,4.427,106.7,1,0.089,19.75,108.6294,21.37,22.41,38.61,0,111,13.2,22.20,68.7
"2009-06-18 00:29:00",985323,4.622,105.9,2.388,0.242,19.76,108.6299,21.38,22.4,38.47,0,111,13.2,22.20,67.9
"2009-06-18 00:29:30",985324,4.519,102.9,1.746,0.091,19.76,108.6317,21.38,22.4,38.35,0,111,13.2,22.21,64.9
"2009-06-18 00:30:00",985325,4.803,99.9,2.977,0.091,19.7,108.6369,21.39,22.41,38.9,0,111,13.2,22.22,61.9
"2009-06-18 00:30:30",985326,5.013,96.1,1.161,0.138,19.74,108.6392,21.4,22.41,39.15,0,111,13.2,22.23,58.1
"2009-06-18 00:31:00",985327,5.084,94.4,0.794,0.064,19.76,108.6454,21.42,22.41,38.88,0,111,13.2,22.24,56.4
"2009-06-18 00:31:30",985328,4.869,96.2,1.677,0.101,19.65,108.6496,21.43,22.41,39.23,0,111,13.19,22.25,58.2
"2009-06-18 00:32:00",985329,4.782,96.4,1.432,0.159,19.68,108.6525,21.43,22.4,39.45,0,111,13.19,22.26,58.4
"2009-06-18 00:32:30",985330,4.642,98,1.445,0.121,19.71,108.6497,21.43,22.41,39.11,0,111,13.19,22.25,60.0
"2009-06-18 00:33:00",985331,4.54,96.8,1.331,0.122,19.73,108.6509,21.43,22.41,39.18,0,111,13.19,22.26,58.8
"2009-06-18 00:33:30",985332,4.633,96.4,0.853,0.087,19.72,108.6464,21.42,22.42,40.2,0,111,13.19,22.25,58.4
"2009-06-18 00:34:00",985333,4.711,94.2,1.555,0.248,19.74,108.6459,21.42,22.42,40.25,0,111,13.19,22.24,56.2
"2009-06-18 00:34:30",985334,5.177,91.7,0.763,0.19,19.64,108.6431,21.41,22.43,42.08,0,111,13.19,22.24,53.7
"2009-06-18 00:35:00",985335,4.952,92,1.151,0.223,19.69,108.6389,21.4,22.43,42.16,0,111,13.19,22.23,54.0
"2009-06-18 00:35:30",985336,4.823,93.2,0.777,0.192,19.75,108.6348,21.39,22.42,39.75,0,111,13.19,22.22,55.2
"2009-06-18 00:36:00",985337,5.103,91.9,1.511,0.171,19.71,108.6327,21.38,22.42,39.97,0,111,13.19,22.21,53.9
"2009-06-18 00:36:30",985338,5.017,92,1.639,0.1,19.74,108.6312,21.38,22.4,39.35,0,111,13.19,22.21,54.0
"2009-06-18 00:37:00",985339,5.002,87.7,0.896,0.13,19.75,108.6333,21.38,22.4,39.44,0,111,13.19,22.21,49.7
"2009-06-18 00:37:30",985340,5.179,84.4,1.701,0.194,19.78,108.6342,21.39,22.41,38.97,0,111,13.2,22.21,46.4
"2009-06-18 00:38:00",985341,5.302,84.9,1.477,0.14,19.78,108.6364,21.39,22.4,39.17,0,111,13.2,22.22,46.9
"2009-06-18 00:38:30",985342,5.384,83.4,0.991,0.208,19.79,108.6364,21.39,22.39,38.96,0,111,13.2,22.22,45.4
"2009-06-18 00:39:00",985343,5.436,83.4,1.659,0.129,19.81,108.637,21.39,22.39,39.34,0,110.9,13.2,22.22,45.4
"2009-06-18 00:39:30",985344,5.452,82.7,1.379,0.164,19.85,108.6367,21.39,22.39,38.76,0,110.9,13.2,22.22,44.7
"2009-06-18 00:40:00",985345,5.412,82.7,0.903,0.11,19.81,108.637,21.39,22.37,38.73,0,110.9,13.2,22.22,44.7
"2009-06-18 00:40:30",985346,5.793,83.5,0.773,0.157,19.89,108.637,21.39,22.36,38.12,0,111,13.2,22.22,45.5
"2009-06-18 00:41:00",985347,5.553,82.2,1.219,0.234,19.88,108.637,21.39,22.37,37.91,0,110.9,13.2,22.22,44.2
"2009-06-18 00:41:30",985348,5.663,79.74,1.892,0.145,19.9,108.6367,21.39,22.37,38.36,0,110.9,13.2,22.22,41.7
"2009-06-18 00:42:00",985349,5.637,81.1,1.475,0.109,19.95,108.6367,21.39,22.35,37.79,0,110.9,13.2,22.22,43.1
"2009-06-18 00:42:30",985350,5.486,79.98,0.804,0.086,19.95,108.6364,21.39,22.37,37.9,0,110.9,13.2,22.22,42.0
"2009-06-18 00:43:00",985351,5.619,81.1,1.102,0.191,19.97,108.6356,21.39,22.37,37.46,0,110.9,13.2,22.22,43.1
"2009-06-18 00:43:30",985352,5.501,80.5,1.367,0.213,20.02,108.6353,21.39,22.37,36.61,0,110.9,13.2,22.22,42.5
"2009-06-18 00:44:00",985353,5.205,78.78,2.066,0.205,19.97,108.6367,21.39,22.36,36.21,0,110.9,13.2,22.22,40.8
"2009-06-18 00:44:30",985354,5.173,73.47,1.915,0.076,19.96,108.637,21.39,22.36,36.37,0,110.9,13.2,22.22,35.5
"2009-06-18 00:45:00",985355,5.226,71.19,0.925,0.064,19.83,108.6367,21.39,22.35,36.32,0,110.9,13.2,22.22,33.2
"2009-06-18 00:45:30",985356,5.233,69.58,0.766,0.106,19.8,108.6364,21.39,22.37,37.32,0,110.9,13.2,22.22,31.6
"2009-06-18 00:46:00",985357,5.516,67.48,1.427,0.1,19.91,108.637,21.39,22.37,36.96,0,110.9,13.2,22.22,29.5
"2009-06-18 00:46:30",985358,5.576,70.27,1.598,0.155,19.94,108.637,21.39,22.37,36.66,0,110.9,13.2,22.22,32.3
"2009-06-18 00:47:00",985359,5.673,72.35,1.364,0.144,19.86,108.637,21.39,22.37,37.19,0,110.9,13.2,22.22,34.3
"2009-06-18 00:47:30",985360,5.615,71.62,0.598,0.099,19.9,108.637,21.39,22.38,36.38,0,110.9,13.2,22.22,33.6
"2009-06-18 00:48:00",985361,5.6,70.24,0.858,0.07,19.92,108.637,21.39,22.38,36.03,0,110.9,13.2,22.22,32.2
"2009-06-18 00:48:30",985362,5.422,69.27,0.687,0.131,19.93,108.637,21.39,22.38,36.04,0,110.9,13.2,22.22,31.3
"2009-06-18 00:49:00",985363,5.624,70.89,1.104,0.109,19.93,108.637,21.39,22.38,35.76,0,110.9,13.2,22.22,32.9
"2009-06-18 00:49:30",985364,5.577,69.3,0.867,0.071,19.99,108.637,21.39,22.4,35.55,0,110.9,13.2,22.22,31.3
"2009-06-18 00:50:00",985365,5.623,65.72,1.562,0.052,19.96,108.637,21.39,22.39,35.67,0,110.9,13.2,22.22,27.7
"2009-06-18 00:50:30",985366,5.452,66.44,0.815,0.076,20.05,108.637,21.39,22.39,35.57,0,110.9,13.2,22.22,28.4
"2009-06-18 00:51:00",985367,5.411,66.49,1.521,0.126,20.07,108.637,21.39,22.39,34.79,0,110.9,13.2,22.22,28.5
"2009-06-18 00:51:30",985368,5.215,64.3,2.427,0.219,20.11,108.637,21.39,22.4,34.06,0,110.9,13.2,22.22,26.3
"2009-06-18 00:52:00",985369,5.125,65.53,1.767,0.139,20.1,108.637,21.39,22.4,33.92,0,110.9,13.2,22.22,27.5
"2009-06-18 00:52:30",985370,5.416,60.53,3.716,0.121,20.14,108.6373,21.39,22.39,33.65,0,110.9,13.2,22.22,22.5
"2009-06-18 00:53:00",985371,5.393,58.65,1.494,0.147,20.12,108.6392,21.4,22.41,33.33,0,110.9,13.2,22.23,20.7
"2009-06-18 00:53:30",985372,4.913,56.94,1.692,0.18,20.13,108.6451,21.42,22.4,33.21,0,110.9,13.2,22.24,18.9
"2009-06-18 00:54:00",985373,4.803,56.77,1.242,0.13,20.04,108.6544,21.44,22.42,33.15,0,110.9,13.2,22.27,18.8
"2009-06-18 00:54:30",985374,4.735,54.83,0.93,0.055,20.06,108.6682,21.47,22.45,33.07,0,110.9,13.2,22.30,16.8
"2009-06-18 00:55:00",985375,4.844,55.15,1.186,0.073,20.08,108.671,21.48,22.44,33.05,0,110.9,13.2,22.31,17.2
"2009-06-18 00:55:30",985376,4.85,54.66,1.382,0.137,20.1,108.6707,21.48,22.46,33.04,0,110.9,13.21,22.31,16.7
"2009-06-18 00:56:00",985377,4.585,56.74,1.162,0.09,20.09,108.6707,21.48,22.46,33.02,0,110.9,13.21,22.31,18.7
"2009-06-18 00:56:30",985378,4.533,55.93,1.168,0.098,20.1,108.6707,21.48,22.48,33.02,0,110.9,13.21,22.31,17.9
"2009-06-18 00:57:00",985379,4.348,55.2,1.734,0.096,20.13,108.675,21.49,22.49,33.03,0,110.9,13.21,22.32,17.2
"2009-06-18 00:57:30",985380,4.111,50.12,1.28,0.061,20.13,108.6814,21.51,22.48,33.15,0,110.9,13.21,22.34,12.1
"2009-06-18 00:58:00",985381,3.912,49.06,1.6,0.083,20.07,108.6975,21.55,22.5,33.18,0,110.9,13.21,22.38,11.1
"2009-06-18 00:58:30",985382,3.62,48.01,2.33,0.089,20.12,108.7025,21.56,22.52,33.16,0,110.9,13.21,22.39,10.0
"2009-06-18 00:59:00",985383,3.462,43.29,0.778,0.039,20.1,108.7063,21.57,22.52,33.19,0,110.9,13.21,22.40,5.3
"2009-06-18 00:59:30",985384,3.523,42.08,1.341,0.057,20.1,108.7063,21.57,22.53,33.23,0,110.9,13.21,22.40,4.1
"2009-06-18 01:00:00",985385,3.418,43.94,1.613,0.153,20.05,108.7084,21.58,22.54,33.24,0,110.9,13.21,22.40,5.9
"2009-06-18 01:00:30",985386,3.622,44.99,2.234,0.253,20.05,108.7078,21.58,22.56,33.36,0,110.9,13.21,22.40,7.0
"2009-06-18 01:01:00",985387,3.813,43.3,2.037,0.163,20.06,108.7069,21.57,22.56,33.74,0,110.9,13.21,22.40,5.3
"2009-06-18 01:01:30",985388,3.739,39.45,2.044,0.142,20.04,108.7084,21.58,22.57,33.72,0,110.9,13.21,22.40,1.5
"2009-06-18 01:02:00",985389,3.618,43.23,3.713,0.27,20.03,108.709,21.58,22.6,34.13,0,110.9,13.21,22.41,5.2
"2009-06-18 01:02:30",985390,3.68,41.82,2.062,0.205,20.06,108.7116,21.59,22.6,34.18,0,110.9,13.21,22.41,3.8
"2009-06-18 01:03:00",985391,3.161,43.34,1.31,0.268,20.07,108.7156,21.6,22.6,33.91,0,110.9,13.21,22.42,5.3
"2009-06-18 01:03:30",985392,2.566,42.99,1.762,0.304,20.03,108.7168,21.6,22.61,34.08,0,110.9,13.21,22.43,5.0
"2009-06-18 01:04:00",985393,2.106,44.19,3.811,0.239,20.04,108.7181,21.6,22.61,34.11,0,110.9,13.21,22.43,6.2
"2009-06-18 01:04:30",985394,1.836,53.34,6.977,0.309,20.1,108.7213,21.61,22.62,33.77,0,110.9,13.21,22.44,15.3
"2009-06-18 01:05:00",985395,2.387,73.87,15.11,0.349,19.79,108.7296,21.63,22.61,35.46,0,110.9,13.21,22.46,35.9
"2009-06-18 01:05:30",985396,2.566,76.69,7.697,0.201,19.87,108.7238,21.62,22.62,36.29,0,110.9,13.21,22.44,38.7
"2009-06-18 01:06:00",985397,3.178,95,8.49,0.359,19.87,108.723,21.62,22.62,36.77,0,110.9,13.2,22.44,57.0
"2009-06-18 01:06:30",985398,3.777,86.8,4.971,0.299,19.89,108.7235,21.62,22.63,37.23,0,110.9,13.2,22.44,48.8
"2009-06-18 01:07:00",985399,4.23,89.7,8.93,0.629,19.88,108.7163,21.6,22.61,37.46,0,110.9,13.2,22.43,51.7
"2009-06-18 01:07:30",985400,5.253,117,12.85,0.26,19.78,108.7164,21.6,22.59,38.81,0,110.9,13.2,22.43,79.0
"2009-06-18 01:08:00",985401,5.648,121.1,2.02,0.461,19.77,108.7197,21.61,22.6,38.25,0,110.9,13.2,22.43,83.1
"2009-06-18 01:08:30",985402,5.073,114.3,5.825,0.492,19.62,108.7208,21.61,22.58,39.22,0,110.9,13.2,22.44,76.3
"2009-06-18 01:09:00",985403,3.756,133.4,5.163,0.389,19.66,108.708,21.58,22.57,39.48,0,110.9,13.2,22.40,95.4
"2009-06-18 01:09:30",985404,4.527,143.1,6.645,0.611,19.37,108.6931,21.54,22.55,42.81,0,110.9,13.2,22.37,105.1
"2009-06-18 01:10:00",985405,3.925,153.3,8.76,0.452,19.22,108.6912,21.53,22.56,44.69,0,110.9,13.2,22.36,115.3
"2009-06-18 01:10:30",985406,4.131,167.6,11.84,1.11,19.31,108.6802,21.51,22.54,45.15,0,110.9,13.2,22.33,129.6
"2009-06-18 01:11:00",985407,4.441,190.9,9,0.588,19.21,108.6156,21.34,22.47,47.65,0,110.9,13.21,22.17,152.9
"2009-06-18 01:11:30",985408,3.754,214.2,16.07,1.142,19.19,108.5797,21.25,22.39,48.4,0,110.9,13.21,22.07,176.2
"2009-06-18 01:12:00",985409,2.803,232,6.075,0.506,19.26,108.494,21.03,22.27,48.49,0,110.9,13.21,21.85,194.0
"2009-06-18 01:12:30",985410,2.203,209.8,17.79,1.244,19.3,108.4452,20.9,22.15,49.55,0,110.9,13.21,21.73,171.8
"2009-06-18 01:13:00",985411,0.312,215.6,48.63,0.301,19.41,108.403,20.79,22.04,49.78,0,110.9,13.21,21.62,177.6
"2009-06-18 01:13:30",985412,0.479,0.106,67.69,0.613,19.41,108.3907,20.76,21.96,49.59,0,110.9,13.21,21.59,322.1
"2009-06-18 01:14:00",985413,3.106,291.6,18.74,0.934,19.39,108.3825,20.74,21.91,49.62,0,110.9,13.21,21.57,253.6
"2009-06-18 01:14:30",985414,3.503,283.2,5.129,0.526,19.38,108.3672,20.7,21.86,50.68,0,110.9,13.21,21.53,245.2
"2009-06-18 01:15:00",985415,1.945,317.4,39.4,1.267,19.56,108.363,20.69,21.8,48.88,0,110.9,13.21,21.52,279.4
"2009-06-18 01:15:30",985416,0.613,1.29,25.83,0.343,19.58,108.3364,20.62,21.75,49.45,0,110.9,13.21,21.45,323.3
"2009-06-18 01:16:00",985417,1.498,1.221,39.02,0.771,19.73,108.3281,20.6,21.7,47.27,0,110.9,13.21,21.43,323.2
"2009-06-18 01:16:30",985418,2.611,356.3,17.96,1.06,19.63,108.3021,20.53,21.66,48.52,0,110.9,13.21,21.36,318.3
"2009-06-18 01:17:00",985419,1.418,7.655,14.3,0.555,19.62,108.3024,20.54,21.6,47.23,0,110.9,13.21,21.36,329.7
"2009-06-18 01:17:30",985420,2.94,23.71,8.99,0.814,19.68,108.3021,20.53,21.57,47.55,0,110.9,13.21,21.36,345.7
"2009-06-18 01:18:00",985421,2.853,0.321,18.43,0.764,19.64,108.3013,20.53,21.54,47.82,0,110.9,13.21,21.36,322.3
"2009-06-18 01:18:30",985422,5.771,327.5,3.152,1.133,19.19,108.2788,20.47,21.52,41.93,0,110.9,13.21,21.30,289.5
"2009-06-18 01:19:00",985423,5.849,325.8,6.412,0.636,19.32,108.2686,20.45,21.48,41.02,0,110.9,13.21,21.27,287.8
"2009-06-18 01:19:30",985424,6.15,315.8,3.877,0.793,19.37,108.2686,20.45,21.46,41.7,0,110.9,13.21,21.27,277.8
"2009-06-18 01:20:00",985425,5.049,322.4,8.14,0.454,19.3,108.2686,20.45,21.46,41.63,0,110.9,13.21,21.27,284.4
"2009-06-18 01:20:30",985426,5.843,320.7,6.872,0.724,19.35,108.2686,20.45,21.47,41.26,0,110.9,13.22,21.27,282.7
"2009-06-18 01:21:00",985427,5.728,322.1,6.974,0.257,19.52,108.2686,20.45,21.44,42.64,0,110.9,13.22,21.27,284.1
"2009-06-18 01:21:30",985428,6.198,332.8,4.963,0.425,19.48,108.2686,20.45,21.45,44.17,0,110.9,13.22,21.27,294.8
"2009-06-18 01:22:00",985429,5.068,352,6.901,0.638,19.63,108.2686,20.45,21.45,45.75,0,110.9,13.22,21.27,314.0
"2009-06-18 01:22:30",985430,4.533,350.9,9.44,0.663,19.72,108.2686,20.45,21.45,48.49,0,110.9,13.21,21.27,312.9
"2009-06-18 01:23:00",985431,4.341,344.1,10.05,0.59,19.75,108.2686,20.45,21.45,46.91,0,110.9,13.21,21.27,306.1
"2009-06-18 01:23:30",985432,3.966,351.3,3.184,0.596,19.57,108.2686,20.45,21.45,49.98,0,110.9,13.21,21.27,313.3
"2009-06-18 01:24:00",985433,4.721,342.2,6.913,0.887,19.58,108.2686,20.45,21.44,46.57,0,110.9,13.21,21.27,304.2
"2009-06-18 01:24:30",985434,2.678,358.4,12.98,0.916,19.57,108.2686,20.45,21.44,46.04,0,110.9,13.21,21.27,320.4
"2009-06-18 01:25:00",985435,2.215,355.3,7.28,1.041,19.57,108.2681,20.45,21.44,48.27,0,110.9,13.21,21.27,317.3
"2009-06-18 01:25:30",985436,3.485,345.7,8.85,0.497,19.45,108.2675,20.45,21.44,44.44,0,110.9,13.21,21.27,307.7
"2009-06-18 01:26:00",985437,3.354,347.6,6.601,0.883,19.4,108.2661,20.44,21.43,41.76,0,110.9,13.21,21.27,309.6
"2009-06-18 01:26:30",985438,3.467,347.5,12.93,1.217,19.29,108.2658,20.44,21.42,39.22,0,110.9,13.21,21.26,309.5
"2009-06-18 01:27:00",985439,2.598,2.242,9.32,0.607,19.26,108.2633,20.44,21.41,38.52,0,110.9,13.21,21.26,324.2
"2009-06-18 01:27:30",985440,2.854,0.981,8.05,0.903,19.21,108.2667,20.44,21.42,37.86,0,110.9,13.21,21.27,323.0
"2009-06-18 01:28:00",985441,3.91,351.7,4.281,0.675,19.22,108.2686,20.45,21.4,37.31,0,110.9,13.21,21.27,313.7
"2009-06-18 01:28:30",985442,3.182,348.2,4.739,0.259,19.09,108.2686,20.45,21.43,37.55,0,110.9,13.22,21.27,310.2
"2009-06-18 01:29:00",985443,3.176,341.5,5.106,0.249,19.02,108.2686,20.45,21.42,37.04,0,110.9,13.22,21.27,303.5
"2009-06-18 01:29:30",985444,4.016,336.5,3.362,0.374,19.06,108.2686,20.45,21.44,37.48,0,110.9,13.22,21.27,298.5
"2009-06-18 01:30:00",985445,3.459,340.6,7.729,0.693,19.08,108.2686,20.45,21.45,36.8,0,110.9,13.22,21.27,302.6
"2009-06-18 01:30:30",985446,3.236,359.9,6.053,0.708,19.2,108.2734,20.46,21.45,38.89,0,110.9,13.22,21.28,321.9
"2009-06-18 01:31:00",985447,3.854,348.9,3.707,0.439,19.18,108.2914,20.51,21.49,39.32,0,110.9,13.22,21.33,310.9
"2009-06-18 01:31:30",985448,3.92,347.8,3.81,0.45,19.2,108.3021,20.53,21.49,37.61,0,110.9,13.22,21.36,309.8
"2009-06-18 01:32:00",985449,3.422,347.2,3.748,0.266,19.21,108.3024,20.54,21.51,37.14,0,110.9,13.22,21.36,309.2
"2009-06-18 01:32:30",985450,4.037,342.8,2.378,0.224,19.21,108.3024,20.54,21.51,37.09,0,110.9,13.22,21.36,304.8
"2009-06-18 01:33:00",985451,4.004,346.1,4.626,0.312,19.27,108.3128,20.56,21.53,36.55,0,110.9,13.22,21.39,308.1
"2009-06-18 01:33:30",985452,4.47,345.5,4.561,0.301,19.36,108.3336,20.62,21.55,36.17,0,110.9,13.22,21.44,307.5
"2009-06-18 01:34:00",985453,4.112,345.6,4.839,0.352,19.33,108.3361,20.62,21.58,35.8,0,110.9,13.22,21.45,307.6
"2009-06-18 01:34:30",985454,5.019,330.4,3.676,0.316,19.22,108.3361,20.62,21.58,36.01,0,110.9,13.22,21.45,292.4
"2009-06-18 01:35:00",985455,4.197,328.6,2.139,0.275,19.27,108.3364,20.62,21.59,35.85,0,110.9,13.22,21.45,290.6
"2009-06-18 01:35:30",985456,4.496,336.6,3.649,0.272,19.26,108.3429,20.64,21.62,35.84,0,110.9,13.22,21.46,298.6
"2009-06-18 01:36:00",985457,4.48,333.8,2.793,0.206,19.38,108.3606,20.68,21.63,35.54,0,110.9,13.22,21.51,295.8
"2009-06-18 01:36:30",985458,4.722,332.4,3.073,0.18,19.35,108.3688,20.71,21.65,35.41,0,110.9,13.22,21.53,294.4
"2009-06-18 01:37:00",985459,4.896,331,2.565,0.28,19.39,108.3699,20.71,21.68,35.3,0,110.9,13.22,21.53,293.0
"2009-06-18 01:37:30",985460,4.578,340.2,3.311,0.275,19.42,108.3699,20.71,21.66,35.06,0,110.9,13.22,21.53,302.2
"2009-06-18 01:38:00",985461,4.811,338.1,2.315,0.484,19.42,108.3699,20.71,21.7,35.11,0,110.9,13.22,21.53,300.1
"2009-06-18 01:38:30",985462,4.874,347.2,4.771,0.372,19.47,108.3699,20.71,21.7,35.19,0,110.9,13.22,21.53,309.2
"2009-06-18 01:39:00",985463,3.743,356.1,3.977,0.812,19.52,108.3699,20.71,21.71,34.33,0,110.9,13.22,21.53,318.1
"2009-06-18 01:39:30",985464,2.361,1.039,5.171,0.525,19.49,108.3702,20.71,21.71,34.49,0,110.9,13.21,21.53,323.0
"2009-06-18 01:40:00",985465,3.726,19.15,6.408,0.567,19.47,108.371,20.71,21.74,34.3,0,110.9,13.21,21.54,341.1
"2009-06-18 01:40:30",985466,4.333,14.84,3.943,0.693,19.52,108.3721,20.71,21.73,34.28,0,110.9,13.21,21.54,336.8
"2009-06-18 01:41:00",985467,5.142,21.6,3.708,0.573,19.52,108.3727,20.72,21.73,34.17,0,110.9,13.21,21.54,343.6
"2009-06-18 01:41:30",985468,3.45,17.35,6.723,0.894,19.51,108.3724,20.72,21.74,34.48,0,110.9,13.21,21.54,339.4
"2009-06-18 01:42:00",985469,5.162,21.1,3.272,0.568,19.54,108.3733,20.72,21.75,34.72,0,110.9,13.21,21.54,343.1
"2009-06-18 01:42:30",985470,4.112,21.57,3.118,0.352,19.58,108.373,20.72,21.74,34.3,0,110.9,13.21,21.54,343.6
"2009-06-18 01:43:00",985471,3.228,15.38,3.769,0.641,19.58,108.3716,20.71,21.75,34.42,0,110.8,13.21,21.54,337.4
"2009-06-18 01:43:30",985472,1.886,9.71,5.107,0.291,19.52,108.3733,20.72,21.76,34.5,0,110.8,13.21,21.54,331.7
"2009-06-18 01:44:00",985473,2.246,10.23,5.274,0.439,19.55,108.3705,20.71,21.75,34.55,0,110.9,13.21,21.53,332.2
"2009-06-18 01:44:30",985474,2.126,6.538,8.06,0.68,19.59,108.3711,20.71,21.75,35.01,0,110.8,13.21,21.54,328.5
"2009-06-18 01:45:00",985475,2.454,15.07,3.494,0.835,19.63,108.3702,20.71,21.75,36.59,0,110.8,13.22,21.53,337.1
"2009-06-18 01:45:30",985476,2.09,3.88,12.85,0.702,19.57,108.3705,20.71,21.76,37.31,0,110.8,13.22,21.53,325.9
"2009-06-18 01:46:00",985477,1.617,12.06,6.582,0.589,19.6,108.3702,20.71,21.75,37.75,0,110.9,13.22,21.53,334.1
"2009-06-18 01:46:30",985478,1.202,11.45,10.12,0.422,19.62,108.3711,20.71,21.76,38.85,0,110.9,13.22,21.54,333.5
"2009-06-18 01:47:00",985479,2.077,355.3,4.556,0.679,19.53,108.3705,20.71,21.76,38.91,0,110.8,13.23,21.53,317.3
"2009-06-18 01:47:30",985480,1.961,355.9,6.875,0.618,19.52,108.372,20.71,21.77,37.24,0,110.8,13.23,21.54,317.9
"2009-06-18 01:48:00",985481,1.252,359,14.28,0.55,19.5,108.3729,20.72,21.75,36.18,0,110.8,13.23,21.54,321.0
"2009-06-18 01:48:30",985482,2.854,340.6,10.69,1.107,18.96,108.3769,20.73,21.75,36.22,0,110.8,13.23,21.55,302.6
"2009-06-18 01:49:00",985483,3.564,337.2,3.684,0.261,18.94,108.3751,20.72,21.75,36.38,0,110.8,13.23,21.55,299.2
"2009-06-18 01:49:30",985484,3.562,345.8,6.483,0.607,19.08,108.3766,20.73,21.73,35.87,0,110.8,13.23,21.55,307.8